BEIDOU-3 M5 (C21)

Last updated on Mon Feb 13 2023 00:03:21 GMT+0000 (Coordinated Universal Time)

1 43207U 18018A 23042.63247177 -.00000003 00000+0 00000+0 0 9994 2 43207 55.6596 103.7777 0005008 325.8279 34.2127 1.86231492 33994

Satellite not in orbit

BEIDOU-3 M5 (C21)